Meteo Giornale » Osservazioni meteo Francia » Caen
ore: 21:00 - Osservazioni Meteo Caen
Lat. 49° 11' N Lon. 0° 27' W Alt. 78 metri s.l.m.
18 °C
Poco Nuvoloso
Temp. 24 Ore
15 °C
23 °C
Ovest
18.5 Km/h
Dew point 13 °C
Umidità 72 %
Visibilità 10 Km
Il sole sorge alle ore 07:16
Il sole tramonta alle ore 20:47
| Data e Ora | Cielo e Fenomeni | T °C | DP °C | Um. % | Pres. hPa | Vis. km | Vento km/h | |
|---|---|---|---|---|---|---|---|---|
| Oggi h: 21:00 | Poco Nuvoloso | 18 | 13 | 72 | 1020 | 10 | O 18.5 | |
| Oggi h: 20:30 | Molto Nuvoloso | 18 | 13 | 72 | 1020 | 10 | O 20.3 | |
| Oggi h: 20:00 | Sereno | 19 | 14 | 72 | 1019 | 10 | O 20.3 | |
| Oggi h: 19:30 | Nuvoloso | 20 | 14 | 68 | 1019 | 10 | O 18.5 | |
| Oggi h: 19:00 | Poco Nuvoloso | 20 | 14 | 68 | 1019 | 10 | O 20.3 | |
| Oggi h: 18:30 | Nuvoloso | 21 | 13 | 60 | 1019 | 10 | O 25.9 | |
| Oggi h: 18:00 | Poco Nuvoloso | 21 | 14 | 64 | 1019 | 10 | O 29.6 | |
| Oggi h: 17:30 | Nuvoloso | 21 | 14 | 64 | 1018 | 10 | O 24 | |
| Oggi h: 17:00 | Molto Nuvoloso | 21 | 14 | 64 | 1018 | 10 | O 27.8 | |
| Oggi h: 16:30 | Molto Nuvoloso | 21 | 13 | 60 | 1018 | 10 | O 27.8 | |
| Oggi h: 16:00 | Molto Nuvoloso | 21 | 13 | 60 | 1018 | 10 | O 29.6 | |
| Oggi h: 15:30 | Poco Nuvoloso | 23 | 14 | 56 | 1017 | 10 | O 31.5 | |
| Oggi h: 15:00 | Poco Nuvoloso | 22 | 13 | 56 | 1017 | 10 | O 31.5 | |
| Oggi h: 14:30 | Molto Nuvoloso | 22 | 13 | 56 | 1017 | 10 | O 35.2 | |
| Oggi h: 14:00 | Poco Nuvoloso | 22 | 13 | 56 | 1017 | 10 | O 33.3 | |
| Oggi h: 13:30 | Molto Nuvoloso | 22 | 15 | 64 | 1016 | 10 | O 29.6 | |
| Oggi h: 13:00 | Nuvoloso | 21 | 13 | 60 | 1016 | 10 | O 29.6 | |
| Oggi h: 12:30 | Nuvoloso | 21 | 14 | 64 | 1016 | 10 | O 29.6 | |
| Oggi h: 12:00 | Molto Nuvoloso | 19 | 15 | 77 | 1015 | 10 | O 29.6 | |
| Oggi h: 11:30 | Molto Nuvoloso | 19 | 17 | 88 | 1015 | 10 | O 27.8 | |
| Oggi h: 11:00 | Pioggia | 18 | 16 | 88 | 1015 | 10 | O/SO 27.8 | |
| Oggi h: 10:30 | Molto Nuvoloso | 19 | 16 | 82 | 1014 | 10 | O/SO 29.6 | |
| Oggi h: 10:00 | Molto Nuvoloso | 18 | 16 | 88 | 1014 | 10 | O/SO 25.9 | |
| Oggi h: 09:30 | Molto Nuvoloso | 17 | 15 | 88 | 1014 | 10 | O/SO 24 | |
| Oggi h: 09:00 | Coperto | 16 | 15 | 93 | 1013 | 10 | SO 20.3 | |
| Oggi h: 08:30 | Molto Nuvoloso | 16 | 15 | 93 | 1013 | 10 | S/SO 16.7 | |
| Oggi h: 08:00 | Molto Nuvoloso | 16 | 14 | 87 | 1013 | 10 | O/SO 18.5 | |
| Oggi h: 07:30 | Pioggia | 15 | 14 | 93 | 1012 | 10 | O/SO 22.2 | |
| Oggi h: 07:00 | Pioggia | 15 | 15 | 100 | 1012 | 6 | O/SO 20.3 | |
| Oggi h: 06:30 | Pioggia Foschia | 15 | 14 | 93 | 1012 | 5 | O/SO 25.9 | |
| Oggi h: 06:00 | Molto Nuvoloso | 16 | 14 | 87 | 1012 | 10 | O/SO 24 | |
| Oggi h: 05:30 | Pioggia | 16 | 14 | 87 | 1012 | 3 | O 20.3 | |
| Oggi h: 05:00 | Molto Nuvoloso | 17 | 14 | 82 | 1011 | 10 | SO 24 | |
| Oggi h: 04:30 | Poco Nuvoloso | 17 | 14 | 82 | 1011 | 10 | SO 25.9 | |
| Oggi h: 04:00 | Molto Nuvoloso | 17 | 14 | 82 | 1011 | 10 | SO 29.6 | |
| Oggi h: 03:30 | Molto Nuvoloso | 17 | 14 | 82 | 1011 | 10 | SO 27.8 | |
| Oggi h: 03:00 | Molto Nuvoloso | 17 | 14 | 82 | 1011 | 10 | SO 25.9 | |
| Oggi h: 02:30 | Poco Nuvoloso | 17 | 14 | 82 | 1011 | 10 | SO 24 | |
| Oggi h: 02:00 | Poco Nuvoloso | 17 | 14 | 82 | 1011 | 10 | SO 27.8 | |
| Oggi h: 01:30 | Poco Nuvoloso | 17 | 14 | 82 | 1011 | 10 | SO 29.6 | |
| Oggi h: 01:00 | Poco Nuvoloso | 17 | 14 | 82 | 1011 | 10 | SO 24 | |
| Oggi h: 00:30 | Sereno | 17 | 14 | 82 | 1011 | 10 | SO 20.3 | |
| Oggi h: 00:00 | Sereno | 18 | 14 | 77 | 1011 | 10 | S/SO 18.5 | |
| Ieri h: 23:30 | Sereno | 18 | 14 | 77 | 1011 | 10 | S/SO 20.3 | |
| Ieri h: 23:00 | Poco Nuvoloso | 18 | 14 | 77 | 1011 | 10 | S/SO 16.7 | |
| Ieri h: 22:30 | Molto Nuvoloso | 18 | 14 | 77 | 1011 | 10 | SO 16.7 | |
| Ieri h: 22:00 | Sereno | 19 | 14 | 72 | 1011 | 10 | S/SO 24 | |



